Back to catalog

STARLINK-5318

AliveCommunicationsVLEO
NORAD 55304·PAYLOAD·🇺🇸 United States

Launched Jan 19, 2023 from Vandenberg Space Force Base

Loading…

Next Passes (next 24 hours)

TLE

FreshSource: CelesTrak SupGP

Epoch: Sep 14, 2026, 20:56 UTC

1 55304C 23010AM  26257.87270833  .00066486  00000+0  55734-2 0  2575
2 55304  69.9994 267.2624 0003542 266.1341  24.2968 14.98284451    19

Track STARLINK-5318 in real time with AllMySat

Download on the App Store